Radiation Dose at Monitoring Post of Fukushima Daini Nuclear Power Station
Date,Time,MP-1(microSv/h),MP-2(microSv/h),MP-3(microSv/h),MP-4(microSv/h),MP-5(microSv/h),MP-6(microSv/h),MP-7(microSv/h),Wind Direction,Wind Velocity(m/s),Rain
2020/05/07,00:00,0.176,0.161,0.271,0.246,0.257,0.140,0.084,north-northwest,4.9,No
2020/05/07,00:10,0.177,0.163,0.272,0.247,0.258,0.140,0.084,north-northwest,6.0,No
2020/05/07,00:20,0.177,0.162,0.270,0.245,0.257,0.138,0.084,north-northwest,4.8,No
2020/05/07,00:30,0.177,0.161,0.271,0.246,0.256,0.139,0.085,north-northwest,6.3,No
2020/05/07,00:40,0.177,0.162,0.271,0.247,0.258,0.139,0.083,north-northwest,6.2,No
2020/05/07,00:50,0.176,0.161,0.270,0.245,0.256,0.139,0.085,north-northwest,5.9,No
2020/05/07,01:00,0.177,0.162,0.272,0.247,0.257,0.139,0.084,north-northwest,6.0,No
2020/05/07,01:10,0.177,0.161,0.273,0.248,0.257,0.139,0.084,north,6.9,No
2020/05/07,01:20,0.178,0.163,0.271,0.246,0.258,0.140,0.085,north,7.9,No
2020/05/07,01:30,0.177,0.162,0.273,0.246,0.258,0.139,0.085,north,6.9,No
2020/05/07,01:40,0.177,0.162,0.271,0.247,0.257,0.140,0.084,north,6.2,No
2020/05/07,01:50,0.176,0.163,0.272,0.246,0.256,0.140,0.085,north-northwest,5.8,No
2020/05/07,02:00,0.176,0.162,0.270,0.246,0.258,0.139,0.084,north,6.1,No
2020/05/07,02:10,0.178,0.161,0.272,0.247,0.258,0.139,0.084,north-northwest,5.5,No
2020/05/07,02:20,0.178,0.163,0.271,0.247,0.255,0.139,0.085,north-northwest,4.9,No
2020/05/07,02:30,0.177,0.162,0.271,0.247,0.257,0.139,0.084,north-northwest,4.0,No
2020/05/07,02:40,0.178,0.162,0.272,0.246,0.257,0.140,0.084,north-northwest,3.3,No
2020/05/07,02:50,0.178,0.163,0.271,0.248,0.257,0.140,0.084,north-northwest,3.6,No
2020/05/07,03:00,0.177,0.163,0.271,0.246,0.257,0.139,0.085,north-northwest,3.4,No
2020/05/07,03:10,0.177,0.161,0.271,0.245,0.257,0.140,0.084,north-northwest,3.9,No
2020/05/07,03:20,0.177,0.163,0.272,0.247,0.257,0.140,0.085,north-northwest,5.0,No
2020/05/07,03:30,0.177,0.162,0.270,0.247,0.257,0.139,0.084,north-northwest,5.8,No
2020/05/07,03:40,0.178,0.162,0.271,0.247,0.257,0.140,0.084,north-northwest,5.6,No
2020/05/07,03:50,0.178,0.161,0.272,0.246,0.257,0.140,0.085,north-northwest,5.0,No
2020/05/07,04:00,0.177,0.163,0.271,0.246,0.257,0.139,0.085,north-northwest,4.9,No
2020/05/07,04:10,0.178,0.162,0.271,0.247,0.257,0.140,0.085,north-northwest,4.8,No
2020/05/07,04:20,0.177,0.163,0.271,0.247,0.257,0.139,0.085,north-northwest,5.2,No
2020/05/07,04:30,0.177,0.164,0.272,0.246,0.257,0.139,0.084,north,5.6,No
2020/05/07,04:40,0.177,0.162,0.272,0.247,0.257,0.140,0.084,north-northwest,5.8,No
2020/05/07,04:50,0.178,0.162,0.272,0.247,0.257,0.140,0.085,north-northwest,5.1,No
2020/05/07,05:00,0.177,0.162,0.271,0.246,0.257,0.139,0.085,north-northwest,4.1,No
2020/05/07,05:10,0.177,0.162,0.272,0.246,0.256,0.139,0.085,north-northwest,4.5,No
2020/05/07,05:20,0.177,0.162,0.271,0.246,0.256,0.140,0.085,north-northwest,5.8,No
2020/05/07,05:30,0.176,0.162,0.271,0.247,0.257,0.139,0.084,north,6.2,No
2020/05/07,05:40,0.177,0.163,0.271,0.247,0.258,0.139,0.084,north-northwest,6.0,No
2020/05/07,05:50,0.178,0.162,0.271,0.246,0.257,0.139,0.084,north,6.8,No
2020/05/07,06:00,0.177,0.161,0.271,0.246,0.256,0.139,0.084,north,8.8,No
2020/05/07,06:10,0.177,0.163,0.270,0.246,0.258,0.140,0.084,north,9.2,No
2020/05/07,06:20,0.178,0.162,0.271,0.246,0.258,0.139,0.084,north,7.9,No
2020/05/07,06:30,0.177,0.161,0.271,0.246,0.256,0.139,0.084,north,7.3,No
2020/05/07,06:40,0.177,0.162,0.271,0.246,0.257,0.138,0.084,north-northwest,5.8,No
2020/05/07,06:50,0.178,0.162,0.271,0.247,0.256,0.138,0.085,north-northwest,5.9,No
2020/05/07,07:00,0.176,0.162,0.271,0.246,0.257,0.139,0.084,north,6.1,No
2020/05/07,07:10,0.177,0.161,0.270,0.245,0.259,0.139,0.084,north,4.3,No
2020/05/07,07:20,0.177,0.161,0.271,0.247,0.256,0.139,0.083,north,4.7,No
2020/05/07,07:30,0.176,0.162,0.269,0.245,0.258,0.139,0.084,north,3.9,No
2020/05/07,07:40,0.178,0.162,0.270,0.246,0.258,0.139,0.083,north-northeast,4.5,No
2020/05/07,07:50,0.177,0.162,0.268,0.244,0.258,0.138,0.084,north-northeast,4.3,No
2020/05/07,08:00,0.178,0.162,0.269,0.245,0.256,0.139,0.084,north-northeast,5.9,No
2020/05/07,08:10,0.176,0.161,0.271,0.245,0.258,0.138,0.083,north-northeast,6.3,No
2020/05/07,08:20,0.176,0.162,0.269,0.245,0.256,0.139,0.085,north-northeast,6.9,No
2020/05/07,08:30,0.176,0.161,0.271,0.244,0.258,0.137,0.085,north-northeast,7.1,No
2020/05/07,08:40,0.177,0.161,0.271,0.246,0.255,0.139,0.084,north-northeast,8.3,No
2020/05/07,08:50,0.177,0.162,0.272,0.246,0.258,0.140,0.084,north-northeast,9.3,No
2020/05/07,09:00,0.179,0.162,0.270,0.244,0.257,0.138,0.084,north-northeast,9.2,No
2020/05/07,09:10,0.177,0.162,0.271,0.247,0.257,0.139,0.084,north-northeast,9.6,No
2020/05/07,09:20,0.177,0.162,0.271,0.246,0.258,0.139,0.084,north-northeast,8.5,No
2020/05/07,09:30,0.177,0.162,0.272,0.245,0.254,0.139,0.083,north-northeast,8.7,No
2020/05/07,09:40,0.178,0.163,0.274,0.248,0.258,0.139,0.084,north-northeast,7.4,No
2020/05/07,09:50,0.177,0.162,0.273,0.245,0.258,0.139,0.085,northeast,6.7,No
2020/05/07,10:00,0.177,0.163,0.273,0.246,0.256,0.139,0.084,north-northeast,4.8,No
2020/05/07,10:10,0.177,0.161,0.270,0.248,0.259,0.140,0.085,northeast,5.2,No
2020/05/07,10:20,0.177,0.163,0.274,0.246,0.257,0.139,0.085,north-northeast,6.3,No
2020/05/07,10:30,0.178,0.163,0.271,0.246,0.257,0.139,0.084,north-northeast,5.3,No
2020/05/07,10:40,0.178,0.162,0.274,0.249,0.259,0.140,0.085,north-northeast,5.4,No
2020/05/07,10:50,0.177,0.162,0.274,0.247,0.257,0.139,0.084,north-northeast,6.0,No
2020/05/07,11:00,0.179,0.164,0.273,0.249,0.260,0.139,0.085,north-northeast,7.5,No
2020/05/07,11:10,0.177,0.162,0.274,0.247,0.258,0.140,0.085,north-northeast,6.0,No
2020/05/07,11:20,0.177,0.163,0.273,0.248,0.256,0.139,0.085,north-northeast,5.3,No
2020/05/07,11:30,0.177,0.162,0.276,0.249,0.260,0.141,0.085,north-northeast,5.5,No
2020/05/07,11:40,0.179,0.164,0.274,0.247,0.258,0.140,0.085,north-northeast,4.8,No
2020/05/07,11:50,0.177,0.163,0.274,0.250,0.256,0.140,0.085,north,6.2,No
2020/05/07,12:00,0.178,0.163,0.274,0.247,0.260,0.140,0.085,north,6.8,No
2020/05/07,12:10,0.178,0.161,0.275,0.249,0.258,0.140,0.084,north,4.9,No
2020/05/07,12:20,0.178,0.164,0.275,0.250,0.259,0.139,0.086,north-northeast,7.7,No
2020/05/07,12:30,0.178,0.163,0.275,0.247,0.259,0.141,0.085,north-northeast,7.8,No
2020/05/07,12:40,0.177,0.164,0.274,0.250,0.256,0.140,0.084,north-northeast,6.5,No
2020/05/07,12:50,0.178,0.162,0.273,0.249,0.260,0.139,0.085,north-northeast,7.4,No
2020/05/07,13:00,0.178,0.163,0.276,0.248,0.259,0.140,0.085,north-northeast,7.4,No
2020/05/07,13:10,0.178,0.162,0.275,0.251,0.256,0.140,0.085,north-northeast,5.3,No
2020/05/07,13:20,0.177,0.164,0.276,0.248,0.260,0.140,0.085,north-northeast,7.4,Yes
2020/05/07,13:30,0.178,0.162,0.274,0.251,0.259,0.141,0.084,north-northeast,6.8,Yes
2020/05/07,13:40,0.179,0.164,0.276,0.248,0.258,0.139,0.085,northeast,6.2,No
2020/05/07,13:50,0.179,0.163,0.274,0.250,0.259,0.141,0.085,northeast,5.2,No
2020/05/07,14:00,0.178,0.164,0.278,0.250,0.260,0.140,0.085,north-northeast,5.7,No
2020/05/07,14:10,0.179,0.163,0.276,0.251,0.261,0.141,0.084,north-northeast,5.8,No
2020/05/07,14:20,0.178,0.164,0.277,0.249,0.257,0.141,0.084,north,5.6,No
2020/05/07,14:30,0.179,0.162,0.276,0.248,0.258,0.140,0.084,north,6.7,No
2020/05/07,14:40,0.178,0.164,0.275,0.250,0.259,0.140,0.085,north,6.3,No
2020/05/07,14:50,0.178,0.163,0.276,0.249,0.256,0.140,0.085,north,7.5,No
2020/05/07,15:00,0.178,0.163,0.275,0.247,0.258,0.139,0.084,north-northeast,6.8,No
2020/05/07,15:10,0.179,0.163,0.277,0.250,0.260,0.140,0.085,north-northeast,4.8,No
2020/05/07,15:20,0.178,0.163,0.274,0.249,0.258,0.140,0.085,north-northeast,5.5,No
2020/05/07,15:30,0.178,0.163,0.277,0.251,0.257,0.139,0.085,north-northeast,5.8,No
2020/05/07,15:40,0.178,0.164,0.275,0.250,0.261,0.140,0.085,north-northeast,4.3,No
2020/05/07,15:50,0.179,0.164,0.277,0.251,0.258,0.140,0.085,northeast,4.0,No
2020/05/07,16:00,0.178,0.164,0.276,0.251,0.262,0.141,0.084,north-northeast,3.5,No
2020/05/07,16:10,0.180,0.164,0.276,0.251,0.260,0.141,0.085,north-northeast,3.5,No
2020/05/07,16:20,0.178,0.162,0.278,0.251,0.261,0.141,0.084,north-northeast,3.7,No
2020/05/07,16:30,0.179,0.164,0.277,0.250,0.258,0.140,0.084,north-northeast,3.3,No
2020/05/07,16:40,0.179,0.164,0.277,0.252,0.261,0.141,0.085,north-northeast,3.2,No
2020/05/07,16:50,0.179,0.163,0.277,0.250,0.259,0.140,0.085,northeast,3.4,No
2020/05/07,17:00,0.178,0.165,0.276,0.251,0.261,0.141,0.085,north-northeast,3.0,No
2020/05/07,17:10,0.178,0.163,0.277,0.250,0.259,0.140,0.085,north-northeast,4.1,No
2020/05/07,17:20,0.179,0.164,0.277,0.251,0.260,0.141,0.085,north-northeast,4.3,No
2020/05/07,17:30,0.178,0.164,0.277,0.252,0.260,0.139,0.085,north-northeast,3.7,No
2020/05/07,17:40,0.178,0.163,0.278,0.250,0.259,0.139,0.085,north-northeast,3.9,No
2020/05/07,17:50,0.179,0.163,0.277,0.251,0.261,0.141,0.085,north-northeast,4.5,No
2020/05/07,18:00,0.179,0.165,0.277,0.250,0.259,0.141,0.085,north-northeast,4.7,No
2020/05/07,18:10,0.179,0.163,0.275,0.250,0.262,0.140,0.085,north-northeast,4.6,No
2020/05/07,18:20,0.178,0.163,0.278,0.250,0.259,0.140,0.084,north,4.2,No
2020/05/07,18:30,0.179,0.164,0.277,0.250,0.259,0.141,0.085,north,4.0,No
2020/05/07,18:40,0.179,0.163,0.277,0.249,0.262,0.140,0.085,north,4.6,No
2020/05/07,18:50,0.178,0.163,0.277,0.250,0.259,0.140,0.085,north,4.4,No
2020/05/07,19:00,0.179,0.164,0.276,0.250,0.261,0.140,0.085,north,4.2,No
2020/05/07,19:10,0.179,0.163,0.275,0.250,0.259,0.141,0.085,north,4.1,No
2020/05/07,19:20,0.178,0.164,0.276,0.250,0.258,0.141,0.085,north,3.9,No
2020/05/07,19:30,0.179,0.164,0.276,0.250,0.260,0.140,0.085,north-northwest,4.1,No
2020/05/07,19:40,0.178,0.164,0.276,0.249,0.260,0.141,0.085,north-northwest,4.7,No
2020/05/07,19:50,0.179,0.165,0.277,0.251,0.260,0.141,0.085,north,5.1,No
2020/05/07,20:00,0.179,0.164,0.275,0.249,0.260,0.141,0.085,north-northwest,5.4,No
2020/05/07,20:10,0.179,0.164,0.277,0.251,0.260,0.141,0.086,north-northwest,4.5,No
2020/05/07,20:20,0.179,0.163,0.279,0.251,0.260,0.141,0.084,north,3.9,No
2020/05/07,20:30,0.179,0.163,0.277,0.250,0.258,0.141,0.084,north,3.6,No
2020/05/07,20:40,0.179,0.164,0.278,0.251,0.259,0.141,0.085,north-northwest,2.9,No
2020/05/07,20:50,0.179,0.163,0.277,0.250,0.260,0.142,0.085,northwest,3.0,No
2020/05/07,21:00,0.178,0.164,0.276,0.250,0.259,0.141,0.085,north,2.4,No
2020/05/07,21:10,0.178,0.163,0.276,0.250,0.259,0.140,0.085,northwest,3.3,No
2020/05/07,21:20,0.179,0.163,0.278,0.249,0.259,0.141,0.085,north-northwest,3.0,No
2020/05/07,21:30,0.179,0.164,0.277,0.251,0.260,0.141,0.084,west-northwest,3.0,No
2020/05/07,21:40,0.178,0.163,0.276,0.249,0.259,0.140,0.085,west-northwest,4.0,No
2020/05/07,21:50,0.179,0.164,0.277,0.251,0.260,0.141,0.085,north-northwest,2.8,No
2020/05/07,22:00,0.178,0.164,0.278,0.251,0.259,0.141,0.085,west-northwest,3.0,No
2020/05/07,22:10,0.178,0.163,0.277,0.250,0.258,0.141,0.085,north,2.4,No
2020/05/07,22:20,0.179,0.165,0.276,0.249,0.260,0.141,0.085,north,3.1,No
2020/05/07,22:30,0.179,0.164,0.277,0.252,0.259,0.140,0.085,north-northwest,3.8,No
2020/05/07,22:40,0.178,0.164,0.276,0.251,0.259,0.141,0.085,north,4.2,No
2020/05/07,22:50,0.179,0.164,0.276,0.251,0.260,0.141,0.085,north-northwest,3.5,No
2020/05/07,23:00,0.178,0.164,0.276,0.252,0.259,0.141,0.085,north,3.4,No
2020/05/07,23:10,0.179,0.164,0.277,0.252,0.258,0.140,0.085,northwest,4.2,No
2020/05/07,23:20,0.179,0.164,0.277,0.251,0.260,0.141,0.085,north-northwest,3.5,No
2020/05/07,23:30,0.179,0.164,0.278,0.250,0.260,0.141,0.084,north-northwest,4.3,No
2020/05/07,23:40,0.179,0.164,0.279,0.250,0.259,0.141,0.085,northwest,4.7,No
2020/05/07,23:50,0.179,0.165,0.278,0.252,0.259,0.141,0.085,northwest,3.7,No
